sat.trackr.live / text

‹ back to catalog

KUIPER-00493

NORAD 69596 · 2026-140E

PAYLOAD ACTIVE UNKNOWN

§ Identity

Operator
Country
US
Launch date
2026-06-17
Launch site
FRGUI
Launch vehicle
Mass (kg)
RCS (m²)

External: N2YO · Heavens-Above · Gunter

§ Orbital elements

Epoch: 2026-09-20T04:35:54.169152Z

Period
97.30 min
Inclination
51.9047°
Eccentricity
0.0000647
Mean motion
14.79934446 rev/d
Perigee alt
629.1 km
Apogee alt
630.0 km
Semi-major
7,007.7 km
B*
2.5465e-4
RAAN
320.5643°
Arg perigee
301.2961°
Mean anomaly
58.7938°
Rev number
1,555

§ Raw data

KUIPER-004931 69596U 26140E   26263.19159918  .00001721  00000+0  25465-3 0  99952 69596  51.9047 320.5643 0000647 301.2961  58.7938 14.79934446 15552

JSON: /api/v1/satellites/69596 · /tle

For live sub-satellite position, see the globe view (requires WebGL).

§ Visibility from observer

Set your observer location to see the next 7 days of passes ≥ 10°. The values pass through the URL so the page stays shareable.

No JS? Fill the form by hand. The geolocation button needs JavaScript.